Location: Aragoneses
(41.0275°N, 4.3847°W)
Time: 16:47:53
(UTC+00:00)

Meteor 1-5 Rocket - Pass Details

Date: 11 December 2025
Orbit: 788 x 913 km, 81.2° (Epoch: 16 January)

Event Time Altitude Azimuth Distance (km) Brightness Sun altitude
Rises 18:16:22 0° 350° (N) 3,307 7.2 -15.9°
Reaches altitude 10° 18:18:43 10° 351° (N) 2,383 6.5 -16.3°
Maximum altitude 18:24:06 87° 79° (E) 821 4.1 -17.3°
Drops below altitude 10° 18:29:37 10° 171° (S) 2,435 6.7 -18.3°
Sets 18:32:03 0° 172° (S) 3,384 7.4 -18.7°
